Location: Ferchesar
(52.6477°N, 12.4298°E)
Time: 17:38:51
(UTC+01:00)

Vanguard 3 - Pass Details

Date: 14 December 2021
Orbit: 508 x 3260 km, 33.3° (Epoch: 22 January)

Event Time Altitude Azimuth Distance (km) Brightness Sun altitude
Rises 01:36:32 0° 229° (SW) 5,951 - -55.8°
Reaches altitude 10° 01:40:30 10° 222° (SW) 5,272 - -55.4°
Maximum altitude 01:54:57 37° 163° (SSE) 4,227 - -53.9°
Exits shadow 01:59:36 33° 140° (SE) 4,495 10.7 -53.4°
Drops below altitude 10° 02:11:42 10° 106° (ESE) 6,100 11.8 -52.0°
Sets 02:16:42 0° 100° (E) 6,952 12.3 -51.4°
